FW7181 Weather Reports


time (UTC)temp
C
wind
direction
speed
KPH
gust
KPH
rain 1hr
cm
rain 24hr
cm
rain mn
cm
humidity
%
barometer
mb
20260507185416 12 175 11.3 12.9 0.00 0.00 0.00 39 1009.6
20260507184913 12 346 8.0 9.7 0.00 0.00 0.00 39 1009.6
20260507184411 12 6 8.0 12.9 0.00 0.00 0.00 39 1009.4
20260507183908 12 150 4.8 8.0 0.00 0.00 0.00 41 1009.6
20260507183405 12 273 1.6 3.2 0.00 0.00 0.00 39 1009.6
20260507182902 12 260 4.8 8.0 0.00 0.00 0.00 38 1009.9
20260507182357 13 2 11.3 12.9 0.00 0.00 0.00 39 1009.8
20260507181854 12 358 3.2 3.2 0.00 0.00 0.00 43 1009.6
20260507181350 12 78 6.4 12.9 0.00 0.00 0.00 40 1009.8
20260507180847 12 307 8.0 9.7 0.00 0.00 0.00 42 1009.7
20260507180344 12 349 8.0 11.3 0.00 0.00 0.00 41 1009.8
20260507175839 12 4 3.2 8.0 0.00 0.00 0.00 43 1010.0
20260507175337 12 22 8.0 14.5 0.00 0.00 0.00 43 1009.8
20260507174834 12 309 1.6 1.6 0.00 0.00 0.00 43 1010.0
20260507174332 12 23 11.3 12.9 0.00 0.00 0.00 41 1009.9
20260507173829 13 298 4.8 8.0 0.00 0.00 0.00 41 1010.0
20260507173326 13 84 6.4 9.7 0.00 0.00 0.00 43 1010.4
20260507172822 12 280 6.4 8.0 0.00 0.00 0.00 43 1010.3
20260507172319 13 153 11.3 14.5 0.00 0.00 0.00 43 1010.2
20260507171815 12 19 1.6 3.2 0.00 0.00 0.00 43 1010.4
20260507171312 12 73 8.0 9.7 0.00 0.00 0.00 44 1010.4
20260507170809 12 208 8.0 12.9 0.00 0.00 0.00 45 1010.6
20260507170305 12 161 9.7 12.9 0.00 0.00 0.00 44 1010.1
20260507165801 11 46 8.0 11.3 0.00 0.00 0.00 42 1010.4
20260507165257 12 215 16.1 24.1 0.00 0.00 0.00 43 1010.7
20260507164754 13 324 11.3 16.1 0.00 0.00 0.00 46 1010.7
20260507164251 12 222 4.8 9.7 0.00 0.00 0.00 46 1010.7
20260507163748 11 53 4.8 8.0 0.00 0.00 0.00 47 1010.8
20260507163246 11 20 6.4 8.0 0.00 0.00 0.00 45 1010.8
20260507162741 12 223 1.6 1.6 0.00 0.00 0.00 46 1010.8
20260507162237 12 251 4.8 4.8 0.00 0.00 0.00 44 1011.0
20260507161735 11 352 6.4 8.0 0.00 0.00 0.00 48 1010.8
20260507161231 11 337 11.3 14.5 0.00 0.00 0.00 46 1011.0
20260507160727 11 14 6.4 9.7 0.00 0.00 0.00 44 1011.2
20260507160223 11 1 11.3 12.9 0.00 0.00 0.00 44 1011.2
20260507155719 11 277 8.0 12.9 0.00 0.00 0.00 43 1011.2
20260507155215 11 42 3.2 4.8 0.00 0.00 0.00 45 1011.2
20260507154712 11 65 1.6 1.6 0.00 0.00 0.00 45 1011.1
20260507154210 11 41 9.7 11.3 0.00 0.00 0.00 46 1011.2
20260507153707 11 54 1.6 3.2 0.00 0.00 0.00 45 1011.4
20260507153203 11 20 11.3 14.5 0.00 0.00 0.00 44 1011.6
20260507152659 11 12 4.8 4.8 0.00 0.00 0.00 55 1011.5
20260507152155 11 189 6.4 8.0 0.00 0.00 0.00 51 1011.4
20260507151652 10 176 4.8 4.8 0.00 0.00 0.00 49 1011.8
20260507151148 11 260 6.4 12.9 0.00 0.00 0.00 52 1011.7
20260507150646 11 173 12.9 16.1 0.00 0.00 0.00 49 1011.8
20260507150142 11 216 3.2 3.2 0.00 0.00 0.00 50 1011.8
20260507145637 11 196 3.2 3.2 0.00 0.00 0.00 51 1012.0
20260507145135 11 163 3.2 3.2 0.00 0.00 0.00 51 1011.9
20260507144631 10 344 8.0 9.7 0.00 0.00 0.00 52 1011.9
20260507144130 10 285 8.0 8.0 0.00 0.00 0.00 52 1012.2
20260507143626 11 204 1.6 1.6 0.00 0.00 0.00 55 1012.1
20260507143123 11 195 3.2 8.0 0.00 0.00 0.00 48 1012.2
20260507142619 10 170 4.8 8.0 0.00 0.00 0.00 53 1012.1
20260507142116 10 172 8.0 9.7 0.00 0.00 0.00 52 1012.2
20260507141612 10 187 14.5 16.1 0.00 0.00 0.00 56 1012.4
20260507141109 10 173 8.0 11.3 0.00 0.00 0.00 57 1012.2
20260507140605 10 254 8.0 12.9 0.00 0.00 0.00 54 1012.5
20260507135600 9 188 4.8 4.8 0.00 0.00 0.00 58 1012.5
20260507135057 9 182 3.2 3.2 0.00 0.00 0.00 60 1012.4
20260507134553 8 157 4.8 4.8 0.00 0.00 0.00 58 1012.6
20260507134049 8 213 8.0 9.7 0.00 0.00 0.00 58 1012.7
20260507133546 8 195 3.2 3.2 0.00 0.00 0.00 59 1012.5
20260507133044 8 243 4.8 4.8 0.00 0.00 0.00 60 1012.8
20260507132540 7 30 1.6 1.6 0.00 0.00 0.00 58 1012.5
20260507132036 7 191 17.7 20.9 0.00 0.00 0.00 59 1012.7
20260507131533 7 180 8.0 9.7 0.00 0.00 0.00 64 1012.7
20260507131031 7 161 3.2 3.2 0.00 0.00 0.00 64 1012.8
20260507130527 6 191 0.0 1.6 0.00 0.00 0.00 66 1012.6
20260507130026 6 200 6.4 8.0 0.00 0.00 0.00 68 1012.8
20260507125524 6 185 4.8 8.0 0.00 0.00 0.00 69 1012.8
20260507125021 6 195 3.2 4.8 0.00 0.00 0.00 74 1012.7
20260507124517 5 194 1.6 3.2 0.00 0.00 0.00 76 1012.7
20260507124016 5 182 3.2 3.2 0.00 0.00 0.00 77 1012.8
20260507123513 5 167 4.8 4.8 0.00 0.00 0.00 79 1012.8
20260507123010 5 170 4.8 4.8 0.00 0.00 0.00 80 1013.1
20260507122504 5 184 4.8 4.8 0.00 0.00 0.00 81 1012.8
20260507122001 4 108 1.6 1.6 0.00 0.00 0.00 86 1012.8
20260507121456 3 130 0.0 1.6 0.00 0.00 0.00 91 1012.9
20260507120953 2 106 3.2 3.2 0.00 0.00 0.00 96 1012.9
20260507120449 2 162 1.6 1.6 0.00 0.00 0.00 97 1012.9
20260507115946 1 187 0.0 0.0 0.00 0.00 0.00 98 1013.1
20260507115442 1 194 0.0 0.0 0.00 0.00 0.00 98 1013.1
20260507114938 0 195 0.0 0.0 0.00 0.00 0.00 98 1013.1
20260507114434 0 200 0.0 0.0 0.00 0.00 0.00 98 1013.1
20260507113932 0 197 0.0 0.0 0.00 0.00 0.00 98 1012.7
20260507113429 0 207 0.0 0.0 0.00 0.00 0.00 98 1012.8
20260507112926 0 179 0.0 0.0 0.00 0.00 0.00 98 1012.9
20260507112424 0 192 0.0 0.0 0.00 0.00 0.00 98 1012.8
20260507111921 -1 190 0.0 0.0 0.00 0.00 0.00 98 1012.7
20260507111418 -1 199 0.0 0.0 0.00 0.00 0.00 98 1012.5
20260507110914 -1 200 0.0 0.0 0.00 0.00 0.00 98 1012.7
20260507110410 -1 200 0.0 0.0 0.00 0.00 0.00 97 1012.8
20260507105907 -1 198 0.0 0.0 0.00 0.00 0.00 97 1012.6
20260507105404 -1 217 0.0 0.0 0.00 0.00 0.00 97 1012.6
20260507104901 -1 226 0.0 0.0 0.00 0.00 0.00 97 1012.6
20260507104357 -1 221 0.0 0.0 0.00 0.00 0.00 97 1012.4
20260507103853 -1 210 0.0 0.0 0.00 0.00 0.00 97 1012.4
20260507103349 -1 210 0.0 0.0 0.00 0.00 0.00 97 1012.5
20260507102840 -1 214 0.0 0.0 0.00 0.00 0.00 97 1012.4
20260507102337 -1 225 0.0 0.0 0.00 0.00 0.00 97 1012.4
20260507101833 -1 220 0.0 0.0 0.00 0.00 0.00 97 1012.5
20260507101333 -1 214 0.0 0.0 0.00 0.00 0.00 97 1012.2
20260507100831 -1 214 0.0 0.0 0.00 0.00 0.00 97 1012.1
20260507100329 -1 217 0.0 0.0 0.00 0.00 0.00 97 1012.4
20260507095827 -1 255 0.0 0.0 0.00 0.00 0.00 97 1012.3
20260507095323 -1 208 0.0 0.0 0.00 0.00 0.00 97 1012.3
20260507094820 -1 228 0.0 0.0 0.00 0.00 0.00 96 1012.6
20260507094317 -1 236 0.0 0.0 0.00 0.00 0.00 96 1012.3
20260507093814 -1 239 0.0 0.0 0.00 0.00 0.00 96 1012.3
20260507093312 -1 207 0.0 0.0 0.00 0.00 0.00 96 1012.1
20260507092810 -1 207 0.0 0.0 0.00 0.00 0.00 96 1012.2
20260507092307 -1 219 0.0 0.0 0.00 0.00 0.00 96 1012.3
20260507091803 -1 248 0.0 0.0 0.00 0.00 0.00 96 1012.1
20260507091259 0 256 0.0 0.0 0.00 0.00 0.00 96 1012.3
20260507090759 0 221 0.0 0.0 0.00 0.00 0.00 96 1012.5
20260507090256 0 243 0.0 0.0 0.00 0.00 0.00 96 1012.5
20260507085753 0 284 0.0 0.0 0.00 0.00 0.00 96 1012.1
20260507085250 0 273 0.0 0.0 0.00 0.00 0.00 95 1012.1
20260507084747 0 212 0.0 0.0 0.00 0.00 0.00 95 1012.2
20260507084243 0 208 0.0 0.0 0.00 0.00 0.00 95 1012.4
20260507083741 0 209 0.0 0.0 0.00 0.00 0.00 95 1012.5
20260507083238 0 209 0.0 0.0 0.00 0.00 0.00 95 1012.5
20260507082734 0 11 1.6 1.6 0.00 0.00 0.00 94 1012.5
20260507082229 0 228 0.0 0.0 0.00 0.00 0.00 94 1012.5
20260507081727 0 225 0.0 0.0 0.00 0.00 0.00 94 1012.6
20260507081222 0 235 0.0 0.0 0.00 0.00 0.00 94 1012.4
20260507080719 0 116 0.0 0.0 0.00 0.00 0.00 94 1012.3
20260507080215 0 110 0.0 1.6 0.00 0.00 0.00 94 1012.4
20260507075711 1 161 0.0 0.0 0.00 0.00 0.00 93 1012.3
20260507075208 1 244 0.0 1.6 0.00 0.00 0.00 93 1012.4
20260507074703 1 218 0.0 0.0 0.00 0.00 0.00 93 1012.3
20260507074202 1 9 1.6 1.6 0.00 0.00 0.00 93 1012.4
20260507073658 1 287 1.6 1.6 0.00 0.00 0.00 92 1012.3
20260507073154 1 333 1.6 1.6 0.00 0.00 0.00 92 1012.3
20260507072653 1 344 1.6 3.2 0.00 0.00 0.00 91 1012.2
20260507072150 2 349 3.2 4.8 0.00 0.00 0.00 90 1012.2
20260507071647 2 335 1.6 3.2 0.00 0.00 0.00 89 1012.3
20260507071143 2 344 1.6 1.6 0.00 0.00 0.00 88 1012.4
20260507070641 2 355 1.6 3.2 0.00 0.00 0.00 88 1012.3
20260507070137 3 334 0.0 1.6 0.00 0.00 0.00 88 1012.5
20260507065633 3 358 1.6 1.6 0.00 0.00 0.00 86 1012.2
20260507065131 3 270 1.6 1.6 0.00 0.00 0.00 85 1012.3
20260507064628 3 312 1.6 1.6 0.00 0.00 0.00 82 1012.4
20260507064127 4 284 0.0 1.6 0.00 0.00 0.00 81 1012.2
20260507063624 4 350 1.6 3.2 0.00 0.00 0.00 81 1012.3
20260507063121 4 267 0.0 0.0 0.00 0.00 0.00 80 1012.3
20260507062617 4 234 0.0 0.0 0.00 0.00 0.00 80 1012.3
20260507062115 4 205 0.0 0.0 0.00 0.00 0.00 78 1012.3
20260507061613 5 214 0.0 0.0 0.00 0.00 0.00 78 1012.5
20260507061111 5 216 0.0 0.0 0.00 0.00 0.00 76 1012.5
20260507060609 5 263 0.0 1.6 0.00 0.00 0.00 74 1012.5
20260507060105 5 208 0.0 0.0 0.00 0.00 0.00 72 1012.5
20260507055600 5 232 0.0 0.0 0.00 0.00 0.00 73 1012.8
20260507055056 5 207 0.0 0.0 0.00 0.00 0.00 74 1012.9
20260507054552 5 200 1.6 1.6 0.00 0.00 0.00 74 1012.8
20260507054050 5 265 0.0 1.6 0.00 0.00 0.00 70 1012.7
20260507053548 5 296 1.6 3.2 0.00 0.00 0.00 69 1013.1
20260507053046 5 358 3.2 4.8 0.00 0.00 0.00 71 1012.8
20260507052543 5 301 1.6 3.2 0.00 0.00 0.00 70 1012.9
20260507052040 5 258 1.6 1.6 0.00 0.00 0.00 69 1012.7
20260507051538 6 5 3.2 3.2 0.00 0.00 0.00 68 1012.9
20260507051034 5 331 1.6 3.2 0.00 0.00 0.00 69 1012.9
20260507050531 6 223 0.0 1.6 0.00 0.00 0.00 68 1013.1
20260507050027 6 302 4.8 4.8 0.00 0.00 0.00 68 1012.9
20260507045524 5 334 3.2 3.2 0.00 0.00 0.00 69 1012.8
20260507045021 6 319 4.8 4.8 0.00 0.00 0.00 68 1012.8
20260507044518 6 11 3.2 3.2 0.00 0.00 0.00 68 1012.9
20260507044015 5 327 3.2 3.2 0.00 0.00 0.00 67 1012.9
20260507043511 5 244 0.0 0.0 0.00 0.00 0.00 71 1013.1
20260507043008 5 329 3.2 3.2 0.00 0.00 0.00 77 1012.9
20260507042504 5 220 0.0 0.0 0.00 0.00 0.00 76 1013.2
20260507041959 5 175 1.6 1.6 0.00 0.00 0.00 75 1013.1
20260507041456 5 225 0.0 0.0 0.00 0.00 0.00 78 1012.9
20260507040953 5 199 0.0 0.0 0.00 0.00 0.00 77 1013.2
20260507040449 5 215 0.0 0.0 0.00 0.00 0.00 75 1012.8
20260507035945 5 224 0.0 0.0 0.00 1.73 1.73 74 1012.7
20260507035442 5 210 0.0 0.0 0.00 1.73 1.73 73 1012.8
20260507034939 5 233 1.6 1.6 0.00 1.73 1.73 77 1012.7
20260507034436 5 230 0.0 0.0 0.00 1.73 1.73 76 1012.8
20260507033934 5 175 1.6 1.6 0.00 1.73 1.73 72 1012.7
20260507033431 5 201 0.0 0.0 0.00 1.73 1.73 76 1012.5
20260507032928 5 194 0.0 0.0 0.00 1.73 1.73 72 1013.1
20260507032425 5 206 0.0 0.0 0.00 1.73 1.73 74 1012.8
20260507031921 5 234 1.6 1.6 0.00 1.73 1.73 74 1012.8
20260507031418 5 212 0.0 0.0 0.00 1.73 1.73 72 1012.5
20260507030915 5 259 0.0 0.0 0.00 1.73 1.73 70 1012.7
20260507030412 5 313 1.6 1.6 0.00 1.73 1.73 68 1012.5
20260507025909 5 221 0.0 0.0 0.00 1.73 1.73 71 1012.2
20260507025406 5 224 0.0 0.0 0.00 1.73 1.73 70 1012.2
20260507024904 6 235 0.0 1.6 0.00 1.73 1.73 70 1012.4
20260507024401 6 243 0.0 0.0 0.00 1.73 1.73 65 1012.3
20260507023857 6 228 0.0 0.0 0.00 1.73 1.73 66 1012.6
20260507023354 6 232 0.0 0.0 0.00 1.73 1.73 62 1012.3
20260507022851 6 222 0.0 0.0 0.00 1.73 1.73 62 1012.3
20260507022347 6 300 1.6 3.2 0.00 1.73 1.73 61 1012.2
20260507021843 6 304 3.2 3.2 0.00 1.73 1.73 61 1012.3
20260507021339 6 243 0.0 0.0 0.00 1.73 1.73 64 1012.0
20260507020837 7 353 1.6 1.6 0.00 1.73 1.73 64 1012.0
20260507020333 7 250 0.0 1.6 0.00 1.73 1.73 64 1012.3
20260507015830 7 347 6.4 9.7 0.00 1.73 1.73 59 1012.3
20260507015329 7 315 3.2 3.2 0.00 1.73 1.73 60 1012.5
20260507014825 7 314 3.2 3.2 0.00 1.73 1.73 60 1012.5
20260507014321 7 302 4.8 4.8 0.00 1.73 1.73 65 1012.6
20260507013818 6 301 1.6 1.6 0.00 1.73 1.73 60 1012.5
20260507013315 6 242 1.6 1.6 0.00 1.73 1.73 66 1012.4
20260507012813 7 272 1.6 1.6 0.00 1.73 1.73 66 1012.6
20260507012308 7 242 1.6 1.6 0.00 1.73 1.73 60 1012.6
20260507011806 7 312 3.2 8.0 0.00 1.73 1.73 59 1013.1
20260507011302 7 278 3.2 4.8 0.00 1.73 1.73 58 1012.5
20260507010802 7 333 3.2 3.2 0.00 1.73 1.73 58 1012.6
20260507010258 7 206 1.6 3.2 0.00 1.73 1.73 61 1012.8
20260507005756 7 347 3.2 4.8 0.00 1.73 1.73 58 1012.7
20260507005252 7 7 4.8 8.0 0.00 1.73 1.73 58 1012.5
20260507004749 7 305 3.2 3.2 0.00 1.73 1.73 60 1012.6
20260507004246 7 228 1.6 3.2 0.00 1.73 1.73 60 1012.2
20260507003742 8 352 3.2 4.8 0.00 1.73 1.73 60 1012.4
20260507003238 8 332 1.6 1.6 0.00 1.73 1.73 60 1012.6
20260507002734 8 303 1.6 1.6 0.00 1.73 1.73 60 1012.5
20260507002230 8 330 3.2 4.8 0.00 1.73 1.73 62 1012.5
20260507001727 8 23 4.8 8.0 0.00 1.73 1.73 63 1012.4
20260507001224 8 342 1.6 1.6 0.00 1.73 1.73 63 1012.5
20260507000721 8 358 4.8 4.8 0.00 1.73 1.73 62 1012.3
20260507000216 8 50 3.2 3.2 0.00 1.73 1.73 60 1012.1
20260506235713 8 336 9.7 11.3 0.00 1.73 1.73 59 1012.1
20260506235209 8 304 3.2 3.2 0.00 1.73 1.73 61 1011.7
20260506234706 8 309 4.8 8.0 0.00 1.73 1.73 62 1011.8
20260506234203 8 322 11.3 14.5 0.00 1.73 1.73 64 1011.7
20260506233701 9 266 1.6 4.8 0.00 1.73 1.73 67 1011.5
20260506233157 9 327 9.7 16.1 0.00 1.73 1.73 67 1011.5
20260506232653 9 0 4.8 8.0 0.00 1.73 1.73 68 1011.2
20260506232148 9 319 3.2 3.2 0.00 1.73 1.73 69 1011.2
20260506231646 10 339 11.3 14.5 0.00 1.73 1.73 70 1011.2
20260506231145 10 341 11.3 12.9 0.00 1.73 1.73 72 1010.7
20260506230641 10 314 3.2 4.8 0.00 1.73 1.73 74 1010.8
20260506230138 10 334 6.4 8.0 0.00 1.73 1.73 74 1010.7
20260506225634 10 292 3.2 3.2 0.00 1.73 1.73 75 1011.0
20260506225131 10 233 0.0 1.6 0.00 1.73 1.73 75 1011.0
20260506224628 10 315 4.8 4.8 0.00 1.73 1.73 74 1010.8
20260506224124 10 283 1.6 1.6 0.00 1.73 1.73 75 1011.0
20260506223620 10 335 3.2 3.2 0.00 1.73 1.73 74 1010.6
20260506223116 10 327 1.6 3.2 0.00 1.73 1.73 74 1010.7
20260506222614 10 13 4.8 4.8 0.00 1.73 1.73 74 1010.7
20260506222110 10 190 0.0 0.0 0.00 1.73 1.73 75 1010.6
20260506221608 10 325 3.2 3.2 0.00 1.73 1.73 75 1010.4
20260506221106 10 267 1.6 3.2 0.00 1.73 1.73 76 1011.0
20260506220602 10 226 1.6 1.6 0.00 1.73 1.73 76 1010.4
20260506220057 10 278 1.6 3.2 0.00 1.73 1.73 77 1010.5
20260506215554 10 321 1.6 3.2 0.00 1.73 1.73 76 1010.8
20260506215049 10 269 3.2 4.8 0.00 1.73 1.73 76 1010.5
20260506214547 10 300 4.8 4.8 0.00 1.73 1.73 77 1010.3
20260506214044 10 314 3.2 3.2 0.00 1.73 1.73 77 1010.2
20260506213543 10 94 1.6 3.2 0.00 1.73 1.73 76 1010.1
20260506213039 10 332 4.8 4.8 0.00 1.73 1.73 77 1010.2
20260506212535 10 323 3.2 3.2 0.00 1.73 1.73 77 1010.0
20260506212030 10 235 1.6 1.6 0.00 1.73 1.73 78 1009.9
20260506211527 10 253 1.6 1.6 0.00 1.73 1.73 78 1009.9
20260506211024 10 343 3.2 3.2 0.00 1.73 1.73 79 1009.8
20260506210521 10 9 4.8 4.8 0.00 1.73 1.73 79 1009.7
20260506210017 10 336 6.4 8.0 0.00 1.73 1.73 80 1009.9
20260506205514 10 24 6.4 9.7 0.00 1.73 1.73 82 1009.7
20260506205009 9 23 3.2 3.2 0.00 1.73 1.73 83 1009.8
20260506204508 9 294 4.8 4.8 0.00 1.73 1.73 83 1010.0
20260506204004 10 313 1.6 3.2 0.00 1.73 1.73 83 1009.8
20260506203502 10 323 1.6 1.6 0.00 1.73 1.73 83 1010.0
20260506202958 10 43 4.8 4.8 0.00 1.73 1.73 82 1010.1
20260506202456 10 330 3.2 4.8 0.00 1.73 1.73 82 1009.9
20260506201952 10 301 4.8 4.8 0.00 1.73 1.73 82 1010.0
20260506201450 10 353 6.4 9.7 0.00 1.73 1.73 82 1009.9
20260506200946 10 317 1.6 1.6 0.00 1.73 1.73 83 1009.9
20260506200442 10 277 1.6 1.6 0.00 1.73 1.73 83 1009.9
20260506195933 10 308 4.8 4.8 0.00 1.73 1.73 83 1009.8
20260506195430 10 345 8.0 11.3 0.00 1.73 1.73 83 1009.7
20260506194926 10 14 6.4 8.0 0.00 1.73 1.73 83 1009.5
20260506194424 10 297 6.4 11.3 0.00 1.73 1.73 83 1009.5
20260506193915 10 285 3.2 3.2 0.00 1.73 1.73 83 1009.9
20260506193412 10 333 11.3 14.5 0.00 1.73 1.73 83 1009.4
20260506192908 10 300 12.9 14.5 0.00 1.73 1.73 83 1009.5
20260506192406 10 16 11.3 12.9 0.00 1.73 1.73 85 1009.2
20260506191902 10 33 6.4 11.3 0.00 1.73 1.73 85 1009.3
20260506191358 10 291 4.8 4.8 0.00 1.73 1.73 84 1009.2
20260506190856 10 329 4.8 8.0 0.00 1.73 1.73 84 1009.2
20260506190352 10 0 8.0 14.5 0.00 1.73 1.73 83 1008.9
20260506185849 10 328 6.4 8.0 0.00 1.73 1.73 84 1009.2